Date String (YYYY-MM-DD hh:mm:ss) UTC,Instrument flags,absolute air pressure of the measurement (hPa),sample flow rate (lpm),inlet stack bypass flow (lpm),air temperature of the measurement (°C),ambient temperature measured by the external sensor (°C),aerosol sample conditioner tube jacket temperature (°C),OPC LED temperature (°C),internal box temperature (°C),relative humidity of the measurement (%),span deviation,mass concentration of particles derived from Lorenz-Mie calculation of OPC scattering (μg/m³),mass concentration of particles derived from Lorenz-Mie calculation of OPC scattering (μg/m³),mass concentration of particles derived from Lorenz-Mie calculation of OPC scattering (μg/m³)
DateTimeUTC,F1_M11,P_M11,Q1_M11,Q2_M11,T1_M11,T2_M11,T3_M11,T4_M11,T5_M11,U1_M11,ZSPAN_M11,X0_M11,X2_M11,X1_M11
2023-07-12 17:00:00,SystemResetWarning,0832.6,5.02,000.00,028.9,025.7,000.0,037.2,030.2,22.0,0000.0,0021.34,0005.86,0004.32
2023-07-12 17:01:00,SystemResetWarning,0832.6,5.00,000.00,028.8,026.1,000.0,037.2,030.3,22.1,0000.0,0020.39,0005.80,0004.32
2023-07-12 17:02:00,SystemResetWarning,0832.6,5.00,000.00,028.9,026.5,000.0,037.3,030.4,22.6,0000.0,0020.06,0005.76,0004.31
2023-07-12 17:03:00,SystemResetWarning,0832.7,5.00,000.00,028.9,026.9,000.0,037.3,030.5,22.3,0000.0,0020.61,0005.76,0004.30
2023-07-12 17:04:00,SystemResetWarning,0832.7,5.00,000.00,028.9,027.2,000.0,037.3,030.6,22.6,0000.0,0021.24,0005.79,0004.30
2023-07-12 17:05:00,SystemResetWarning,0832.6,5.00,000.00,029.0,027.5,000.0,037.3,030.6,22.9,0000.0,0021.18,0005.80,0004.29
2023-07-12 17:06:00,SystemResetWarning,0832.7,5.00,000.00,029.0,027.7,000.0,037.3,030.7,22.5,0000.0,0020.22,0005.79,0004.29
2023-07-12 17:07:00,SystemResetWarning,0832.6,4.98,000.00,029.0,026.9,000.0,037.3,030.6,23.2,0000.0,0018.78,0005.81,0004.28
2023-07-12 17:08:00,SystemResetWarning,0832.6,5.01,000.00,029.0,025.4,000.0,037.2,030.4,23.6,0000.0,0018.05,0005.74,0004.27
2023-07-12 17:09:00,SystemResetWarning,0832.7,5.01,000.00,028.9,025.2,000.0,037.1,030.3,23.6,0000.0,0018.24,0005.69,0004.24
2023-07-12 17:10:00,SystemResetWarning,0832.6,5.00,000.00,028.8,025.6,000.0,037.1,030.2,24.4,0000.0,0018.86,0005.68,0004.24
2023-07-12 17:11:00,SystemResetWarning,0832.6,5.00,000.00,028.8,026.0,000.0,037.2,030.3,25.0,0000.0,0017.99,0005.69,0004.24
2023-07-12 17:12:00,SystemResetWarning,0832.6,4.99,000.00,028.8,026.4,000.0,037.2,030.3,25.9,0000.0,0019.67,0005.78,0004.25
2023-07-12 17:13:00,SystemResetWarning,0832.7,4.99,000.00,028.9,026.8,000.0,037.3,030.4,24.6,0000.0,0021.48,0005.79,0004.26
2023-07-12 17:14:00,SystemResetWarning,0832.6,5.00,000.00,028.9,027.1,000.0,037.3,030.5,23.2,0000.0,0020.37,0005.79,0004.27
2023-07-12 17:15:00,SystemResetWarning,0832.7,5.01,000.00,028.9,027.4,000.0,037.3,030.6,24.0,0000.0,0019.70,0005.80,0004.27
2023-07-12 17:16:00,SystemResetWarning,0832.7,5.01,000.00,029.0,027.5,000.0,037.3,030.7,24.6,0000.0,0020.62,0005.83,0004.28
2023-07-12 17:17:00,SystemResetWarning,0832.7,4.98,000.00,029.0,026.1,000.0,037.2,030.5,24.6,0000.0,0021.47,0005.89,0004.29
2023-07-12 17:18:00,SystemResetWarning,0832.6,5.01,000.00,028.9,025.1,000.0,037.1,030.3,23.6,0000.0,0022.29,0005.92,0004.31
2023-07-12 17:19:00,SystemResetWarning,0832.7,5.01,000.00,028.8,025.4,000.0,037.1,030.3,22.8,0000.0,0024.63,0006.01,0004.32
2023-07-12 17:20:00,SystemResetWarning,0832.6,5.00,000.00,028.8,025.7,000.0,037.1,030.2,24.6,0000.0,0024.88,0006.11,0004.34
2023-07-12 17:21:00,SystemResetWarning,0832.6,5.00,000.00,028.8,026.1,000.0,037.2,030.3,24.6,0000.0,0024.70,0006.13,0004.34
2023-07-12 17:22:00,SystemResetWarning,0832.7,5.00,000.00,028.8,026.5,000.0,037.2,030.3,23.6,0000.0,0025.08,0006.16,0004.33
2023-07-12 17:23:00,SystemResetWarning,0832.6,5.01,000.00,028.8,026.9,000.0,037.2,030.4,23.5,0000.0,0023.88,0006.14,0004.33
2023-07-12 17:24:00,SystemResetWarning,0832.6,4.99,000.00,028.9,027.2,000.0,037.2,030.5,23.2,0000.0,0023.15,0006.14,0004.33
2023-07-12 17:25:00,SystemResetWarning,0832.6,4.99,000.00,028.9,027.5,000.0,037.3,030.6,23.1,0000.0,0023.83,0006.18,0004.32
2023-07-12 17:26:00,SystemResetWarning,0832.6,5.00,000.00,029.0,027.0,000.0,037.2,030.7,23.9,0000.0,0023.65,0006.15,0004.32
2023-07-12 17:27:00,SystemResetWarning,0832.6,5.01,000.00,028.9,025.4,000.0,037.1,030.4,24.1,0000.0,0022.39,0006.09,0004.31
2023-07-12 17:28:00,SystemResetWarning,0832.7,5.01,000.00,028.8,025.0,000.0,037.0,030.2,24.4,0000.0,0022.00,0006.09,0004.32
2023-07-12 17:29:00,SystemResetWarning,0832.6,5.01,000.00,028.8,025.4,000.0,037.0,030.2,25.4,0000.0,0021.96,0006.09,0004.32
2023-07-12 17:30:00,SystemResetWarning,0832.6,5.00,000.00,028.7,025.8,000.0,037.1,030.2,25.3,0000.1,0020.46,0006.05,0004.32
2023-07-12 17:31:00,SystemResetWarning,0832.6,4.99,000.00,028.7,026.2,000.0,037.1,030.2,25.6,0000.3,0019.54,0006.04,0004.33
2023-07-12 17:32:00,SystemResetWarning,0832.6,5.01,000.00,028.8,026.6,000.0,037.1,030.3,24.2,0001.0,0019.94,0006.04,0004.34
2023-07-12 17:33:00,SystemResetWarning,0832.7,5.00,000.00,028.8,027.0,000.0,037.2,030.4,25.5,-000.1,0020.06,0006.06,0004.35
2023-07-12 17:34:00,SystemResetWarning,0832.6,5.00,000.00,028.8,027.3,000.0,037.2,030.5,25.9,-000.9,0021.19,0006.10,0004.36
2023-07-12 17:35:00,SystemResetWarning,0832.7,4.99,000.00,028.9,027.6,000.0,037.2,030.6,24.1,-000.3,0021.33,0006.13,0004.35
2023-07-12 17:36:00,SystemResetWarning,0832.7,4.99,000.00,028.9,027.3,000.0,037.2,030.6,21.7,0000.0,0019.67,0006.12,0004.35
2023-07-12 17:37:00,SystemResetWarning,0832.6,5.00,000.00,028.9,025.7,000.0,037.1,030.4,20.1,0000.0,0020.39,0006.19,0004.37
2023-07-12 17:38:00,SystemResetWarning,0832.7,5.01,000.00,028.8,025.1,000.0,037.0,030.3,17.9,0000.0,0021.39,0006.27,0004.39
2023-07-12 17:39:00,SystemResetWarning,0832.6,5.01,000.00,028.8,025.4,000.0,037.0,030.2,18.1,0000.0,0022.58,0006.29,0004.39
2023-07-12 17:40:00,SystemResetWarning,0832.7,5.00,000.00,028.7,025.8,000.0,037.1,030.2,19.3,0000.0,0021.82,0006.26,0004.37
2023-07-12 17:41:00,SystemResetWarning,0832.7,5.00,000.00,028.7,026.2,000.0,037.1,030.3,19.0,0000.0,0021.65,0006.30,0004.37
2023-07-12 17:42:00,SystemResetWarning,0832.7,5.00,000.00,028.8,026.6,000.0,037.1,030.3,18.7,0000.0,0021.36,0006.27,0004.36
2023-07-12 17:43:00,SystemResetWarning,0832.6,5.01,000.00,028.8,027.0,000.0,037.2,030.4,19.4,0000.0,0020.11,0006.22,0004.33
2023-07-12 17:44:00,SystemResetWarning,0832.6,5.00,000.00,028.8,027.3,000.0,037.2,030.5,21.0,0000.0,0019.08,0006.15,0004.31
2023-07-12 17:45:00,SystemResetWarning,0832.6,4.99,000.00,028.9,027.5,000.0,037.2,030.6,20.6,0000.0,0017.36,0006.01,0004.28
2023-07-12 17:46:00,SystemResetWarning,0832.6,4.98,000.00,028.9,026.7,000.0,037.1,030.5,21.4,0000.0,0016.24,0005.92,0004.25
2023-07-12 17:47:00,SystemResetWarning,0832.5,5.01,000.00,028.8,025.2,000.0,037.0,030.3,20.9,0000.0,0016.19,0005.91,0004.23
2023-07-12 17:48:00,SystemResetWarning,0832.5,5.02,000.00,028.8,025.2,000.0,037.0,030.2,21.3,0000.0,0015.57,0005.79,0004.20
2023-07-12 17:49:00,SystemResetWarning,0832.5,5.00,000.00,028.7,025.5,000.0,037.0,030.1,20.7,0000.0,0015.42,0005.70,0004.17
2023-07-12 17:50:00,SystemResetWarning,0832.5,5.00,000.00,028.7,025.9,000.0,037.0,030.2,21.2,0000.0,0014.79,0005.61,0004.15
2023-07-12 17:51:00,SystemResetWarning,0832.5,5.00,000.00,028.7,026.3,000.0,037.1,030.2,20.7,0000.0,0015.95,0005.58,0004.14
2023-07-12 17:52:00,SystemResetWarning,0832.5,4.99,000.00,028.7,026.7,000.0,037.1,030.3,20.9,0000.0,0016.11,0005.50,0004.12
2023-07-12 17:53:00,SystemResetWarning,0832.5,5.00,000.00,028.8,027.1,000.0,037.1,030.5,20.5,0000.0,0016.13,0005.45,0004.11
2023-07-12 17:54:00,SystemResetWarning,0832.5,4.98,000.00,028.8,027.4,000.0,037.2,030.5,19.4,0000.0,0016.24,0005.41,0004.12
2023-07-12 17:55:00,SystemResetWarning,0832.5,5.00,000.00,028.9,027.3,000.0,037.2,030.6,20.2,0000.0,0017.12,0005.40,0004.14
2023-07-12 17:56:00,SystemResetWarning,0832.5,5.00,000.00,028.9,025.9,000.0,037.1,030.4,19.8,0000.0,0017.08,0005.44,0004.17
2023-07-12 17:57:00,SystemResetWarning,0832.5,5.00,000.00,028.8,024.9,000.0,037.0,030.2,19.6,0000.0,0017.49,0005.51,0004.19
2023-07-12 17:58:00,SystemResetWarning,0832.5,5.02,000.00,028.7,025.2,000.0,036.9,030.1,20.1,0000.0,0017.77,0005.48,0004.20
2023-07-12 17:59:00,SystemResetWarning,0832.4,5.00,000.00,028.7,025.6,000.0,037.0,030.1,21.9,0000.0,0017.96,0005.53,0004.23
